星链-5297 (STARLINK-5297 )

导读

STARLINK-5297是美国SpaceX星链星座的V1.5批次卫星,于2022年10月28日发射入轨。它运行在近地轨道,配备相控阵天线与氪离子推进系统,属于星链全球宽带互联网星座的组成部分,主要为偏远、基础设施匮乏地区提供高速低延迟宽带服务,可支持海事、航空、应急通信等多场景应用,退役后会主动降轨在大气层中烧毁,减少空间碎片影响。

基本信息
目录编号:
54158
目录名称:
STARLINK-5297
国际标识:
2022-141B
轨道中心:
EARTH
卫星名称:
星链-5297
卫星全名:
星链-5297 (STARLINK-5297 )
卫星状态:
在轨 (已飞行1326 天)
发射日期:
2022-10-28 UTC
国别 :
美国 (US)
星等 :
--
轨道信息
数据来源 国际轨道数据
星历时间: 2026-06-14T23:41:30+0800
14小时前
查看轨道信息
半长轴: 6917.877km
偏心率: 0.0001356
轨道倾角: 53.163°
近地点辐角 90.392°
升交点赤经 298.883°
平近点角 269.723°
近地点: 538.801km
远地点: 540.679km
周期: 95.437分钟
每日圈数: 15.088412
详细信息
固有亮度:
5
最大亮度:
2.5
卫星平台:
Starlink v1.5
覆盖范围:
全球
运营商:
太空探索技术公司
运营商所在国:
美国
制造商(研发单位):
太空探索技术公司
制造商所在国:
美国
使用方式:
暂无
卫星简介
星链(Starlink)计划是由太空探索技术公司(SpaceX)提出的一个巨型低轨卫星互联网星座项目,计划在2019年至2024年间在太空搭建由约1.2万颗卫星组成的“星链”网络,其中1584颗将部署在地球上空550千米处的近地轨道,并从2020年开始工作。该卫星仍在工作。
2D轨道图
3D轨道图
轨道高度分析图
轨道倾角分析图
轨道综合分析图
查看轨道综合分析图